Flag for Netherlands Weather past 2 weeks in 's-Hertogenbosch, Netherlands

Now
41 °F

Low clouds.


Feels Like: 32 °F
Forecast: 35 / 39 °F
Wind: 17 mph from Southwest

Location: Volkel

Current Time: Jan 28, 2015 at 10:26:51 AM

Latest Report: Jan 28, 2015 at 9:55 AM


Visibility: N/A

Pressure: 29.80 "Hg

Humidity: 93%

Dew point: 39 °F

Location of 's-HertogenboschLocation

Historic Weather in 's-Hertogenbosch — Graph

°F

's-Hertogenbosch temperature yesterday

Maximum temperature yesterday: 45 °F (at 1:25 PM)
Minimum temperature yesterday: 34 °F (at 10:25 PM)
Average temperature yesterday: 39 °F

Past Weeks' High & Low Weather Summary

 TemperatureHumidityPressure
High52 °F (Jan 15, 12:55 PM)100% (Jan 13, 2:55 PM)30.39 "Hg (Jan 13, 2:55 PM)
Low27 °F (Jan 17, 8:55 AM)65% (Jan 21, 2:25 PM)29.33 "Hg (Jan 15, 2:59 PM)
Average37 °F89%29.95 "Hg
* Reported Jan 13 9:25 AM — Jan 28 9:25 AM, 's-Hertogenbosch, Weather by CustomWeather, © 2014

Note: Actual official high and low records may vary slightly from our data, if they occured in-between our weather recording intervals... More about our weather records

Advertising

's-Hertogenbosch weather history for previous 24 hours

 ConditionsComfort  
Time TempWeatherWind HumidityBarometerVisibility
9:25 AM
Jan 28
41 °FFog.16 mph93%29.83 "Hg3 mi
9:04 AM41 °FFog.16 mph93%29.83 "Hg3 mi
8:55 AM41 °FBroken clouds.16 mph93%29.83 "HgN/A
8:25 AM41 °FMostly cloudy.16 mph93%29.86 "HgN/A
8:02 AM41 °FMostly cloudy.16 mph87%29.89 "HgN/A
7:25 AM41 °FMostly cloudy.14 mph87%29.89 "HgN/A
6:59 AM41 °FFog.14 mph87%29.92 "Hg6 mi
6:55 AM41 °FFog.13 mph87%29.92 "Hg6 mi
6:25 AM41 °FFog.13 mph87%29.95 "Hg5 mi
5:55 AM41 °FFog.13 mph87%29.95 "Hg5 mi
5:25 AM39 °FFog.13 mph93%29.98 "Hg4 mi
4:55 AM39 °FFog.9 mph93%30.01 "Hg4 mi
4:25 AM39 °FFog.9 mph93%30.01 "Hg3 mi
3:55 AM39 °FFog.10 mph93%30.01 "Hg3 mi
3:25 AM39 °FFog.10 mph93%30.04 "Hg3 mi
2:55 AM39 °FFog.9 mph93%30.07 "Hg3 mi
2:25 AM39 °FFog.12 mph93%30.07 "Hg4 mi
1:59 AM39 °FFog.13 mph93%30.09 "Hg4 mi
1:25 AM37 °FFog.10 mph100%30.12 "Hg4 mi
12:55 AM37 °FFog.10 mph93%30.12 "Hg5 mi
12:25 AM36 °FFog.8 mph100%30.12 "Hg4 mi
11:59 PM
Jan 27
36 °FFog.8 mph100%30.15 "Hg4 mi
11:25 PM34 °FFog.8 mph93%30.15 "Hg4 mi
10:55 PM36 °FFog.8 mph93%30.15 "Hg6 mi
10:25 PM34 °FFog.8 mph100%30.18 "Hg6 mi
9:55 PM36 °FChilly.7 mph93%30.18 "HgN/A
9:25 PM37 °FChilly.7 mph93%30.18 "HgN/A
8:55 PM39 °FOvercast.6 mph93%30.18 "HgN/A
8:25 PM41 °FOvercast.7 mph87%30.18 "HgN/A
7:55 PM41 °FOvercast.7 mph87%30.18 "HgN/A
7:25 PM41 °FPartly cloudy.6 mph93%30.18 "HgN/A
7:04 PM43 °FMostly cloudy.6 mph87%30.21 "HgN/A
6:55 PM43 °FOvercast.6 mph87%30.21 "HgN/A
6:25 PM43 °FMostly cloudy.6 mph81%30.18 "HgN/A
5:55 PM43 °FOvercast.7 mph81%30.18 "HgN/A
5:25 PM43 °FOvercast.6 mph87%30.18 "HgN/A
4:55 PM43 °FMostly cloudy.7 mph87%30.18 "HgN/A
4:25 PM43 °FMostly cloudy.6 mph87%30.18 "HgN/A
3:55 PM45 °FOvercast.6 mph81%30.18 "HgN/A
3:25 PM43 °FOvercast.3 mph87%30.18 "HgN/A
2:55 PM41 °FRain showers. More clouds than sun.8 mph93%30.18 "HgN/A
2:25 PM45 °FBroken clouds.8 mph81%30.18 "HgN/A
1:55 PM45 °FMostly cloudy.9 mph81%30.18 "HgN/A
1:25 PM45 °FBroken clouds.8 mph81%30.18 "HgN/A
12:55 PM43 °FBroken clouds.8 mph87%30.21 "HgN/A
12:25 PM43 °FMore clouds than sun.8 mph87%30.21 "HgN/A
11:55 AM43 °FOvercast.9 mph87%30.21 "HgN/A
11:25 AM43 °FBroken clouds.9 mph81%30.21 "HgN/A
10:55 AM41 °FScattered clouds.8 mph87%30.21 "HgN/A
10:25 AM39 °FPartly sunny.7 mph93%30.21 "HgN/A
Weather by CustomWeather, © 2014

See weather overviewHow to use our weather pages